Torna al catalogo

THORAD DELTA 1 DEB

AttivoLEO
NORAD 8785·DEBRIS·🇺🇸 United States

Lanciato Nov 15, 1974 da Vandenberg Space Force Base

Loading…

Prossimi Passaggi (prossime 24 ore)

TLE

AggiornatoSource: Space-Track

Epoca: Sep 13, 2026, 19:06 UTC

1 08785U 74089DM  26256.79637616  .00000617  00000-0  61232-2 0  9992
2 08785 101.0101   9.2227 0276820 248.4167 268.7112 12.13202692 91761

Traccia THORAD DELTA 1 DEB in tempo reale con AllMySat

Download on the App Store